Location: Lower Kingswood
(51.2667°N, 0.2167°W)
Time: 12:47:32
(UTC+00:00)

ARIANE 5 R/B - Pass Details

Date: 26 September 2023
Orbit: 748 x 794 km, 98.8° (Epoch: 28 November)

Event Time Altitude Azimuth Distance (km) Brightness Sun altitude
Rises 04:21:29 0° 19° (NNE) 3,252 6.3 -14.9°
Reaches altitude 10° 04:23:54 10° 25° (NNE) 2,313 5.6 -14.5°
Maximum altitude 04:28:49 49° 100° (E) 976 3.5 -13.8°
Drops below altitude 10° 04:33:40 10° 175° (S) 2,272 4.8 -13.1°
Sets 04:36:00 0° 181° (S) 3,188 5.6 -12.7°
